11:43
Airports
History
Links
Donate
Help keep this website running!
PayPal
Bitcoin
This page is community maintained. The information is intended for PC simulator navigation or reference.
Always use approved charts for navigation.
EDAJ
Gera Leumitz
Gera Leumitz (EDAJ)
Gera, Thüringen, Germany (7546)
(U)
Lat/Lng:50° 52' 50.37" N / 12° 8' 14.38" E
50.880657 / 12.137328
Elevation:1015'ft / 309mMSL
ID / ICAO:EDAJ
Runways:1
Longest:(06-24) 756.4m / 2,482ft Asphalt
Distance To
Airport ID:
Nearby VORs <50NM
Nearby NDBs
Nearby WeatherUpdated 08-20-17 11:20 GMT
Nearby weather at EDDP, Leipzig-Halle located 37.7 nautical miles from EDAJ
Altimeter: 30.12
Visibility: 6.2 statute miles
Wind: 10 knots (260°)
Temp: 19°c 66°f
Humidity: 52.2%

METAR: EDDP 201120Z 26010KT 230V300 9999 SCT035CB SCT080 19/09 Q1020 NOSIG

(Powered by phpweather)
Runway 06 / 24
Dimensions:756.4 x 24.1m 2482' x 79'ft
Surface:Asphalt
Edge Lights:Medium intensity
Runway 06 [A]Runway 24 [B]
Heading:063°TH 243°TH
Lat:
Lng:
50° 52' 45.04"N
12° 7' 57.08"E
50° 52' 55.69"N
12° 8' 31.68"E
ALS:RAILRAIL
User Notes and Comments
Google Map
Nearby Airports
(C) Altenburg Nobitz 17.5 NM
EDAC ENE 66°
(U) JENA SCHONGLEINA 18.6 NM
EDBJ W 277°
(C) BOEHLEN 25.1 NM
EDOE NNE 23°
(C) LAUCHA 31.8 NM
EDBL NW 322°
(C) Chemnitz Jahnsdorf 31.9 NM
EDCJ ESE 106°
(U) MERSEBURG 34.4 NM
EDAM NNW 345°
(C) Leipzig-Halle 37.7 NM
EDDP (WX) N
VFR Chart
Flight Planning at SkyVector.com